YAOGAN-27

Last updated on Sat Jul 05 2025 00:02:29 GMT+0000 (Coordinated Universal Time)

1 40878U 15040A 25185.61105915 -.00000031 00000+0 30200-4 0 9999 2 40878 100.0870 182.5741 0007552 299.9795 60.0569 13.16050609471944
UTC large
Height (km)
Speed (km/s)
/
Latitude / Longitude
Inclination (degrees)
Orbital Period (minutes)
Azimuth
Elevation
Range (km)
Doppler Factor

Next 0 passes for location: London (51.5072 / 0.1276)

Sorry there are no passes over London.